EDUSAT

Satellite information

Favourite Embed

Satellite Type and Status

PAYLOADIN ORBIT

Key statistics

Satellite EDUSAT at a glance.

Uptime

5071

Days in orbit

Revolutions

≈ 14.8

Per day

Orbit

SSO

Sun Synchronous Orbit

Inclination

98.3

Latest

Satellite identification and parameters

Extended collection of information and parameters for EDUSAT.

Object identification

Identified? True

Debris? False

Object name: EDUSAT

International designator: 2011-044A

Object number (NORAD): 37788

Object ID (CCSDS): 37788

Country: ITALY (IT)

Current information (Y/N): Y

RCS size: MEDIUM

Orbital parameters

Period: 97.591 minutes

Inclination: 98.3099 deg

SMA: 7021.551 km

Apoapsis: 668.451 km

Periapsis: 618.38 km

RAAN: 69.5095 deg

Eccentricy: 0.0035655

Argument of periapsis: 147.926 deg

Mean anomaly: 277.4756 deg

Mean motion: 14.75547581 rev/day

Mean motion (dot): 0.00000689 rev/day2

B* drag term: 0.00010827 1/REarth

Two-line elements (TLE)

Creation date: July 4, 2025, 5:36 p.m.

Reference frame: TEME

Reference center: EARTH

Epoch: July 4, 2025, 4:29 p.m. UTC

TLE line 0: 0 EDUSAT

TLE line 1: 1 37788U 11044A 25185.68716134 .00000689 00000-0 10827-3 0 9994

TLE line 2: 2 37788 98.3099 69.5095 0035655 147.9260 277.4756 14.75547581745269

Live tracking on map

Real-time ground track for satellite EDUSAT.

In-orbit conjunctions

There are no conjunctions computed for EDUSAT, at the moment. Check back to stay up to date, as we update our databases every day.

Go to all conjunctions

Associated space launch

EDUSAT was lifted into orbit during the mission ‘Dnepr 1 | Sich-2’, on board a Dnepr space rocket.

The launch took place on Aug. 17, 2011, 7:12 a.m. from 370/13.

For more information about the launch, click the button.

Launch to space Dnepr 1 | Sich-2
Dnepr 1 | Sich-2

Agency: N/A

Status: Launch Successful

Launch date: Aug. 17, 2011, 7:12 a.m. UTC

Rocket: Dnepr

Launch pad: 370/13

Location: Dombarovskiy, Russian Federation

...

Latest news about this satellite

There are no fresh news available about this satellite. Check back as we update our databases every day.


Newsletter sign-up

Weekly statistics, charts and insights to help you stay on top of the space industry.